TimeCDT,TemperatureF,Dew PointF,Humidity,Sea Level PressureIn,VisibilityMPH,Wind Direction,Wind SpeedMPH,Gust SpeedMPH,PrecipitationIn,Events,Conditions,WindDirDegrees,DateUTC
12:55 AM,20.8,16.0,81,30.38,10.0,NW,6.9,-,N/A,,Clear,320,2013-03-13 05:55:00
1:55 AM,23.9,17.4,76,30.39,10.0,NNW,8.1,-,N/A,,Clear,330,2013-03-13 06:55:00
2:55 AM,20.5,15.6,81,30.40,10.0,WNW,8.1,-,N/A,,Clear,300,2013-03-13 07:55:00
3:55 AM,20.3,15.6,82,30.39,10.0,NNW,6.9,-,N/A,,Clear,330,2013-03-13 08:55:00
4:55 AM,19.8,15.1,82,30.41,10.0,WNW,6.9,-,N/A,,Clear,300,2013-03-13 09:55:00
5:55 AM,16.5,13.5,88,30.44,10.0,WNW,6.9,-,N/A,,Clear,300,2013-03-13 10:55:00
6:55 AM,16.7,13.5,87,30.44,10.0,Calm,Calm,-,N/A,,Clear,0,2013-03-13 11:55:00
7:55 AM,16.5,13.6,88,30.45,10.0,WNW,5.8,-,N/A,,Clear,300,2013-03-13 12:55:00
8:55 AM,16.9,13.6,87,30.46,10.0,Calm,Calm,-,N/A,,Clear,0,2013-03-13 13:55:00
9:55 AM,24.1,17.4,76,30.47,10.0,NNE,9.2,-,N/A,,Clear,30,2013-03-13 14:55:00
10:55 AM,25.3,18.1,74,30.50,10.0,Calm,Calm,-,N/A,,Clear,0,2013-03-13 15:55:00
11:32 AM,28.4,19.4,69,30.49,10.0,Calm,Calm,-,N/A,,Partly Cloudy,0,2013-03-13 16:32:00
11:45 AM,28.4,19.4,69,30.49,10.0,Calm,Calm,-,N/A,,Scattered Clouds,0,2013-03-13 16:45:00
11:55 AM,28.9,19.6,68,30.49,10.0,SSE,3.5,-,0.00,,Scattered Clouds,160,2013-03-13 16:55:00
11:56 AM,28.4,19.4,69,30.49,10.0,Calm,Calm,-,N/A,,Scattered Clouds,0,2013-03-13 16:56:00
12:06 PM,28.4,19.4,69,30.50,10.0,Calm,Calm,-,N/A,,Mostly Cloudy,0,2013-03-13 17:06:00
12:14 PM,28.4,19.4,69,30.50,10.0,SSE,4.6,-,N/A,,Mostly Cloudy,150,2013-03-13 17:14:00
12:18 PM,28.4,19.4,69,30.50,10.0,Variable,4.6,-,N/A,,Mostly Cloudy,0,2013-03-13 17:18:00
12:55 PM,29.8,18.9,64,30.49,10.0,NNE,5.8,-,0.00,,Scattered Clouds,20,2013-03-13 17:55:00
1:55 PM,30.9,18.1,59,30.46,10.0,ESE,5.8,-,N/A,,Mostly Cloudy,120,2013-03-13 18:55:00
2:55 PM,32.4,18.3,56,30.45,10.0,Variable,3.5,-,N/A,,Overcast,0,2013-03-13 19:55:00
3:55 PM,33.6,19.0,55,30.41,10.0,SE,5.8,-,N/A,,Overcast,130,2013-03-13 20:55:00
4:55 PM,34.7,18.1,51,30.40,10.0,SSE,3.5,-,N/A,,Overcast,150,2013-03-13 21:55:00
5:55 PM,36.5,19.6,50,30.37,10.0,South,4.6,-,N/A,,Clear,170,2013-03-13 22:55:00
6:55 PM,36.1,20.5,53,30.35,10.0,SSE,5.8,-,N/A,,Clear,150,2013-03-13 23:55:00
7:55 PM,32.5,20.7,62,30.34,10.0,East,5.8,-,N/A,,Clear,90,2013-03-14 00:55:00
8:55 PM,29.3,23.0,77,30.33,10.0,East,5.8,-,N/A,,Clear,90,2013-03-14 01:55:00
9:55 PM,32.0,22.1,67,30.31,10.0,ESE,9.2,-,N/A,,Clear,110,2013-03-14 02:55:00
10:55 PM,32.2,23.5,70,30.30,10.0,ESE,9.2,-,N/A,,Clear,120,2013-03-14 03:55:00
11:55 PM,31.5,23.9,74,30.29,10.0,ESE,5.8,-,N/A,,Scattered Clouds,120,2013-03-14 04:55:00